{"data":{"norad_id":58035,"intl_designator":"2023-156H","name":"STARLINK-30438","alt_names":[],"object_type":"PAYLOAD","status":"ACTIVE","operator":null,"country":"US","launch_date":"2023-10-09","launch_site_code":"AFWTR","launch_vehicle":null,"mission":null,"orbit_class":"UNKNOWN","rcs_meters":null,"size_class":null,"mass_kg":null,"dimensions":null,"purposes":["comms"],"wikipedia_slug":null,"has_3d_model":false,"image_url":null,"decayed_at":null,"tle_current":{"epoch":"2026-05-25T04:46:44.851008Z","epoch_age_seconds":68549,"freshness":"FRESH","line1":"1 58035U 23156H   26145.19913022 -.00000602  00000+0 -81962-5 0  9993","line2":"2 58035  53.1614  82.7271 0001712  61.2433 298.8740 15.30190111147989","mean_motion":15.30190111,"eccentricity":0.0001712,"inclination_deg":53.1614,"raan_deg":82.7271,"arg_perigee_deg":61.2433,"mean_anomaly_deg":298.874,"bstar":-8.1962e-6,"rev_number":14798,"period_min":94.105953871244,"perigee_km":474.07129742054,"apogee_km":476.41789527913,"semimajor_km":6853.3815963498,"source":"CELESTRAK","updated_at":"2026-05-25T13:38:18.495578Z"}}}